Regional Weather Roundup
Issued by NWS

Home | Current Version | Previous Version | Graphics & Text | Print | Product List | Glossary On
Versions: 1 2 3 4 5 6 7 8 9 10 11 12 13 14 15 16 17 18 19 20 21 22 23 24 25 26 27 28 29 30 31 32 33 34 35 36 37 38 39 40 41 42 43 44 45 46 47 48 49 50
000
ASUS43 KDMX 242201
RWRIA

WEATHER ROUNDUP FOR IOWA
NATIONAL WEATHER SERVICE DES MOINES IA
400 PM CST SAT FEB 24 2018

NOTE: "FAIR" INDICATES FEW OR NO CLOUDS BELOW 12,000 FEET WITH NO
SIGNIFICANT WEATHER AND/OR OBSTRUCTIONS TO VISIBILITY.

* - THESE STATIONS ARE NOT NWS STATIONS...THUS NOT UNDER NWS
QUALITY CONTROL.  THEY ALSO DO NOT REPORT WEATHER SUCH
AS PRECIPITATION OR FOG.

IAZ001>003-012>014-020>022-031>034-043>046-242300-
   NORTHWEST IOWA

CITY           SKY/WX    TMP DP  RH WIND       PRES   REMARKS
CARROLL *      LGT SNOW  30  30 100 NW13      29.65F WCI  20
CHEROKEE *     MIX PCPN  26  25  97 S5        29.67F WCI  20
DENISON *      CLOUDY    27  27 100 CALM      29.67F FOG
LE MARS *      CLOUDY    23  21  93 S8        29.68F WCI  14
ORANGE CITY *  LGT SNOW  23  23 100 S6        29.66F WCI  16
SHELDON *      LGT SNOW  23  23 100 SE6       29.64F WCI  16
SIOUX CITY     CLOUDY    24  21  88 SW3       29.69F
SPENCER        SNOW      22  19  89 E7        29.66F VSB 1/2 WCI  13
STORM LAKE *   CLOUDY    25  25 100 SE5       29.65F FOG     WCI  19
$$

IAZ055>058-069>071-079>083-090>094-242300-
   SOUTHWEST IOWA

CITY           SKY/WX    TMP DP  RH WIND       PRES   REMARKS
ATLANTIC *     MOSUNNY   30  30 100 NW8G14    29.67S FOG     WCI  23
AUDUBON *      MIX PCPN  30  28  93 W6        29.67F WCI  24
CLARINDA *     LGT RAIN  32  32 100 NW10      29.73R WCI  24
COUNCIL BLFS * PTSUNNY   28  30 100 W10       29.68S WCI  19
CRESTON *      LGT RAIN  32  32 100 W6        29.66S WCI  26
LAMONI         LGT RAIN  34  33  96 SW8       29.66R VSB 1   WCI  27
RED OAK *      CLOUDY    32  30  93 W8        29.69S FOG     WCI  25
SHENANDOAH *   CLOUDY    32  30  93 W7        29.72R FOG     WCI  26
$$

IAZ047>049-059>061-072>074-084-242300-
   CENTRAL IOWA

CITY           SKY/WX    TMP DP  RH WIND       PRES   REMARKS
AMES           LGT RAIN  34  33  96 S5        29.65F FOG     WCI  30
ANKENY *       FOG       34  34 100 S6        29.67F VSB 3/4 WCI  29
BOONE *        CLOUDY    32  32 100 CALM      29.63F FOG
CHARITON *     FOG       36  36 100 S8        29.64F VSB 3/4 WCI  29
DES MOINES     DRZL/FOG  34  33  96 CALM      29.65F VSB 1
GRINNELL*      LGT RAIN  35  34  97 SE12      29.67F VSB 3/4 WCI  27
KNOXVILLE *    FOG       36  36 100 SE8       29.63F VSB 1/2 WCI  29
MARSHALLTOWN   MIX PCPN  35  35 100 SE15      29.64F FOG     WCI  25
NEWTON *       FOG       36  36 100 SE9       29.64F VSB 3/4 WCI  29
PELLA *        LGT RAIN  36  35  97 SE7       29.66F VSB 3/4 WCI  30
$$

IAZ004>006-015-016-023>025-035-036-242300-
   NORTH CENTRAL IOWA

CITY           SKY/WX    TMP DP  RH WIND       PRES   REMARKS
CLARION *      FOG       32  32 100 S10       29.67S VSB 1/2 WCI  24
ESTHERVILLE    LGT SNOW  20  17  88 N7        29.66F VSB 3/4 WCI  11
FORT DODGE *   MIX PCPN  32  31  96 SW7       29.66F FOG     WCI  26
MASON CITY     MIX PCPN  32  31  96 SE14      29.66F VSB 1   WCI  22
FOREST CITY *  MIX PCPN  32  32 100 SE7       29.66R VSB 1   WCI  26
WEBSTER CITY * LGT RAIN  32  32 100 SW6       29.63F VSB 3/4 WCI  26
IOWA FALLS *   LGT RAIN  34  33  96 SE6       29.66R WCI  29
$$

IAZ007>011-017>019-026>030-037>042-050>054-066-242300-
   NORTHEAST IOWA

CITY           SKY/WX    TMP DP  RH WIND       PRES   REMARKS
CEDAR RAPIDS   FOG       36  33  89 SE10      29.68R VSB 1   WCI  28
CHARLES CITY * FOG       32  32 100 E16G22    29.65F VSB 1   WCI  21
CLINTON *      CLOUDY    37  36  96 SE21      29.74S FOG     WCI  26
DECORAH *      CLOUDY    32  32 100 E16G24    29.66F FOG     WCI  21
DUBUQUE        MIX PCPN  34  32  92 E15       29.71F FOG     WCI  24
MONTICELLO *   CLOUDY    36  36 100 E14G22    29.69F FOG     WCI  27
OELWEIN *      CLOUDY    34  34 100 SE16G26   29.66F FOG     WCI  23
WATERLOO       CLOUDY    33  33 100 SE14      29.66S FOG     WCI  23
$$

IAZ064-065-067-068-078-242300-
   EAST CENTRAL IOWA

CITY           SKY/WX    TMP DP  RH WIND       PRES   REMARKS
DAVENPORT      CLOUDY    39  37  92 E17G24    29.74F FOG     WCI  30
IOWA CITY      CLOUDY    38  36  92 SE13      29.71F FOG     WCI  30
MT. PLEASANT * RAIN      37  37 100 SE13      29.68F VSB 1   WCI  29
MUSCATINE *    MIX PCPN  41  39  93 SE14      29.72F
QUAD CITIES    CLOUDY    41  39  93 SE14      29.73F
$$

IAZ062-063-075>077-085>089-095>099-242300-
   SOUTHEAST IOWA

CITY           SKY/WX    TMP DP  RH WIND       PRES   REMARKS
BURLINGTON     FOG       41  41 100 SE13      29.69F VSB 1
FAIRFIELD *    CLOUDY    39  39 100 SE14      29.65F FOG     WCI  31
FORT MADISON * FOG       41  41 100 SE12G18   29.69F VSB 3/4
KEOKUK *       FOG       41  41 100 SE10G17   29.67F VSB 1/2
OSKALOOSA *    RAIN      36  35  98 SE14      29.66F VSB 3/4 WCI  27
OTTUMWA        CLOUDY    38  37  97 SE9       29.65F FOG     WCI  31
WASHINGTON *   FOG       39  39 100 SE16G22   29.69F VSB 3/4 WCI  30
$$

ABBREVIATIONS USED IN REMARKS
   TC - TEMPERATURES IN CELSIUS
  WCI - WIND CHILL INDEX
   HX - HEAT INDEX
  VSB - VISIBILITY
$$





USA.gov is the U.S. government's official web portal to all federal, state and local government web resources and services.